• In Belarus
  • List of Countries
  • For 7 days
  • Water Temperature
  • Satellite Maps
  • Weather Map
  • Weather Widgets
  • user-avatar
    Login

    Hourly Weather Crete

    Today, 15 December, Saturday

    Time Temperature Precipitation Wind Pressure Humidity
    00:00 +10°C° 0 mm 5 mps 711 mmHg 68%
    01:00 +10°C° 0 mm 5 mps 711 mmHg 69%
    02:00 +11°C° 0 mm 7 mps 711 mmHg 66%
    03:00 +11°C° 0 mm 7 mps 711 mmHg 68%
    04:00 +11°C° 0 mm 6 mps 711 mmHg 70%
    05:00 +11°C° 0 mm 6 mps 711 mmHg 72%
    06:00 +11°C° 0 mm 6 mps 710 mmHg 72%
    07:00 +11°C° 0 mm 6 mps 710 mmHg 71%
    08:00 +12°C° 0 mm 7 mps 710 mmHg 72%
    09:00 +12°C° 0 mm 7 mps 710 mmHg 69%
    10:00 +14°C° 0 mm 7 mps 710 mmHg 67%
    11:00 +15°C° 0 mm 7 mps 710 mmHg 64%
    12:00 +15°C° 0 mm 7 mps 710 mmHg 65%
    13:00 +15°C° 0 mm 8 mps 710 mmHg 65%
    14:00 +15°C° 0 mm 8 mps 709 mmHg 66%
    15:00 +14°C° 0 mm 7 mps 709 mmHg 68%
    16:00 +14°C° 0 mm 7 mps 708 mmHg 70%
    17:00 +12°C° 0 mm 7 mps 708 mmHg 72%
    18:00 +12°C° 0.1 mm 7 mps 708 mmHg 73%
    19:00 +12°C° 0.1 mm 7 mps 708 mmHg 74%
    20:00 +12°C° 0.1 mm 7 mps 708 mmHg 75%
    21:00 +12°C° 0.3 mm 7 mps 707 mmHg 74%
    22:00 +12°C° 0.3 mm 7 mps 707 mmHg 74%
    23:00 +12°C° 0.3 mm 8 mps 707 mmHg 73%

    Tomorrow, 16 December, Sunday

    Time Temperature Precipitation Wind Pressure Humidity
    00:00 +11°C° 0.2 mm 7 mps 707 mmHg 72%
    01:00 +11°C° 0.2 mm 6 mps 707 mmHg 72%
    02:00 +11°C° 0.2 mm 6 mps 706 mmHg 71%
    03:00 +10°C° 0.2 mm 5 mps 706 mmHg 73%
    04:00 +10°C° 0.2 mm 5 mps 705 mmHg 75%
    05:00 +10°C° 0.2 mm 4 mps 705 mmHg 77%
    06:00 +10°C° 0.2 mm 4 mps 705 mmHg 78%
    07:00 +10°C° 0.2 mm 4 mps 705 mmHg 79%
    08:00 +10°C° 0.2 mm 4 mps 705 mmHg 81%
    09:00 +11°C° 0.1 mm 4 mps 705 mmHg 76%
    10:00 +11°C° 0.1 mm 4 mps 705 mmHg 71%
    11:00 +12°C° 0.1 mm 4 mps 706 mmHg 66%
    12:00 +13°C° 0 mm 4 mps 706 mmHg 64%
    13:00 +13°C° 0 mm 4 mps 706 mmHg 62%
    14:00 +13°C° 0 mm 5 mps 705 mmHg 60%
    15:00 +13°C° 0 mm 4 mps 706 mmHg 62%
    16:00 +12°C° 0 mm 4 mps 706 mmHg 64%
    17:00 +12°C° 0 mm 4 mps 706 mmHg 66%
    18:00 +12°C° 0 mm 4 mps 706 mmHg 68%
    19:00 +11°C° 0 mm 4 mps 706 mmHg 69%
    20:00 +11°C° 0 mm 4 mps 707 mmHg 71%
    21:00 +11°C° 0 mm 4 mps 707 mmHg 72%
    22:00 +9°C° 0 mm 5 mps 707 mmHg 73%
    23:00 +9°C° 0 mm 5 mps 708 mmHg 74%

    Day after tomorrow, 17 December, Monday

    Time Temperature Precipitation Wind Pressure Humidity
    00:00 +9°C° 0 mm 5 mps 708 mmHg 76%
    01:00 +9°C° 0 mm 5 mps 708 mmHg 77%
    02:00 +9°C° 0 mm 5 mps 708 mmHg 78%
    03:00 +9°C° 0 mm 5 mps 708 mmHg 79%
    04:00 +8°C° 0 mm 5 mps 708 mmHg 80%
    05:00 +8°C° 0 mm 5 mps 708 mmHg 81%
    06:00 +8°C° 0 mm 4 mps 708 mmHg 80%
    07:00 +10°C° 0 mm 4 mps 708 mmHg 79%
    08:00 +10°C° 0 mm 4 mps 709 mmHg 79%
    09:00 +11°C° 0 mm 3 mps 709 mmHg 73%
    10:00 +12°C° 0 mm 3 mps 709 mmHg 67%
    11:00 +13°C° 0 mm 3 mps 710 mmHg 61%
    12:00 +14°C° 0 mm 3 mps 710 mmHg 60%
    13:00 +14°C° 0 mm 3 mps 709 mmHg 58%
    14:00 +14°C° 0 mm 4 mps 709 mmHg 57%
    15:00 +14°C° 0 mm 4 mps 709 mmHg 60%
    16:00 +13°C° 0 mm 4 mps 709 mmHg 63%
    17:00 +13°C° 0 mm 4 mps 709 mmHg 67%
    18:00 +12°C° 0 mm 4 mps 710 mmHg 69%
    19:00 +11°C° 0 mm 4 mps 710 mmHg 71%
    20:00 +11°C° 0 mm 4 mps 710 mmHg 73%
    21:00 +10°C° 0 mm 3 mps 710 mmHg 74%
    22:00 +10°C° 0 mm 3 mps 710 mmHg 76%
    23:00 +10°C° 0 mm 3 mps 710 mmHg 77%

    18 December, Tuesday

    Time Temperature Precipitation Wind Pressure Humidity
    00:00 +10°C° 0 mm 3 mps 710 mmHg 78%
    01:00 +10°C° 0 mm 3 mps 710 mmHg 80%
    02:00 +10°C° 0 mm 4 mps 710 mmHg 82%
    03:00 +10°C° 0.1 mm 4 mps 709 mmHg 83%
    04:00 +10°C° 0.1 mm 4 mps 709 mmHg 85%
    05:00 +11°C° 0.1 mm 4 mps 708 mmHg 86%
    06:00 +10°C° 0.4 mm 5 mps 708 mmHg 87%
    07:00 +10°C° 0.4 mm 6 mps 708 mmHg 87%
    08:00 +10°C° 0.4 mm 6 mps 708 mmHg 87%
    09:00 +11°C° 0.3 mm 7 mps 708 mmHg 79%
    10:00 +12°C° 0.3 mm 8 mps 708 mmHg 71%
    11:00 +12°C° 0.3 mm 8 mps 708 mmHg 63%
    12:00 +12°C° 0 mm 8 mps 707 mmHg 62%
    13:00 +12°C° 0 mm 9 mps 707 mmHg 61%
    14:00 +12°C° 0 mm 9 mps 707 mmHg 60%
    15:00 +12°C° 0 mm 8 mps 707 mmHg 63%
    16:00 +11°C° 0 mm 8 mps 707 mmHg 66%
    17:00 +10°C° 0 mm 8 mps 707 mmHg 68%
    18:00 +10°C° 0 mm 7 mps 707 mmHg 69%
    19:00 +9°C° 0 mm 7 mps 707 mmHg 70%
    20:00 +9°C° 0 mm 6 mps 707 mmHg 71%
    21:00 +9°C° 0 mm 6 mps 707 mmHg 71%
    22:00 +9°C° 0 mm 6 mps 707 mmHg 71%
    23:00 +9°C° 0 mm 6 mps 707 mmHg 71%

    19 December, Wednesday

    Time Temperature Precipitation Wind Pressure Humidity
    00:00 +9°C° 0.1 mm 6 mps 707 mmHg 71%
    01:00 +9°C° 0.1 mm 6 mps 707 mmHg 71%
    02:00 +8°C° 0.1 mm 6 mps 707 mmHg 72%
    03:00 +8°C° 0.3 mm 7 mps 707 mmHg 73%
    04:00 +8°C° 0.3 mm 7 mps 707 mmHg 74%
    05:00 +8°C° 0.3 mm 7 mps 707 mmHg 75%
    06:00 +7°C° 0.4 mm 8 mps 708 mmHg 74%
    07:00 +7°C° 0.4 mm 9 mps 708 mmHg 74%
    08:00 +8°C° 0.4 mm 9 mps 709 mmHg 73%
    09:00 +8°C° 0.1 mm 9 mps 709 mmHg 72%
    10:00 +8°C° 0.1 mm 9 mps 710 mmHg 70%
    11:00 +10°C° 0.1 mm 9 mps 710 mmHg 68%
    12:00 +10°C° 0.1 mm 9 mps 711 mmHg 68%
    13:00 +10°C° 0.1 mm 9 mps 711 mmHg 67%
    14:00 +10°C° 0.1 mm 9 mps 711 mmHg 66%
    15:00 +10°C° 0 mm 8 mps 711 mmHg 67%
    16:00 +9°C° 0 mm 7 mps 711 mmHg 69%
    17:00 +9°C° 0 mm 6 mps 711 mmHg 70%
    18:00 +9°C° 0 mm 5 mps 712 mmHg 72%
    19:00 +8°C° 0 mm 4 mps 712 mmHg 74%
    20:00 +8°C° 0 mm 3 mps 712 mmHg 76%
    21:00 +8°C° 0 mm 3 mps 712 mmHg 77%
    22:00 +8°C° 0 mm 3 mps 712 mmHg 78%
    23:00 +8°C° 0 mm 3 mps 713 mmHg 79%

    20 December, Thursday

    Time Temperature Precipitation Wind Pressure Humidity
    00:00 +8°C° 0 mm 2 mps 712 mmHg 80%
    01:00 +8°C° 0 mm 2 mps 712 mmHg 80%
    02:00 +7°C° 0 mm 2 mps 712 mmHg 81%
    03:00 +7°C° 0 mm 2 mps 712 mmHg 80%
    04:00 +7°C° 0 mm 2 mps 712 mmHg 80%
    05:00 +7°C° 0 mm 2 mps 712 mmHg 80%
    06:00 +7°C° 0 mm 2 mps 713 mmHg 79%
    07:00 +7°C° 0 mm 2 mps 713 mmHg 79%
    08:00 +8°C° 0 mm 2 mps 714 mmHg 78%
    09:00 +9°C° 0 mm 2 mps 714 mmHg 71%
    10:00 +11°C° 0 mm 1 mps 714 mmHg 65%
    11:00 +13°C° 0 mm 1 mps 715 mmHg 58%
    12:00 +13°C° 0 mm 1 mps 715 mmHg 57%
    13:00 +13°C° 0 mm 1 mps 714 mmHg 55%
    14:00 +14°C° 0 mm 2 mps 714 mmHg 54%
    15:00 +13°C° 0 mm 2 mps 714 mmHg 59%
    16:00 +12°C° 0 mm 2 mps 714 mmHg 63%
    17:00 +12°C° 0 mm 2 mps 715 mmHg 67%
    18:00 +10°C° 0 mm 2 mps 715 mmHg 69%
    19:00 +10°C° 0 mm 2 mps 715 mmHg 71%
    20:00 +9°C° 0 mm 2 mps 715 mmHg 74%
    21:00 +9°C° 0 mm 2 mps 715 mmHg 75%
    22:00 +9°C° 0 mm 2 mps 715 mmHg 77%
    23:00 +9°C° 0 mm 1 mps 715 mmHg 79%
    Show more